Location: Alvediston
(51.0078°N, 2.0364°W)
Time: 00:40:12
(UTC+00:00)

Cosmos 1570 Rocket - Pass Details

Date: 27 February 2020
Orbit: 762 x 789 km, 74.1° (Epoch: 04 April)

Event Time Altitude Azimuth Distance (km) Brightness Sun altitude
Rises 19:21:38 0° 188° (S) 3,219 7.3 -16.0°
Reaches altitude 10° 19:24:01 10° 184° (S) 2,301 6.4 -16.4°
Maximum altitude 19:29:06 55° 108° (ESE) 929 4.0 -17.2°
Drops below altitude 10° 19:34:15 10° 32° (NNE) 2,333 6.3 -18.0°
Sets 19:36:41 0° 28° (NNE) 3,269 7.1 -18.3°
